JS2QVS-13 Weather Reports


time (UTC)temp
C
wind
direction
speed
KPH
gust
KPH
rain 1hr
cm
rain 24hr
cm
rain mn
cm
humidity
%
barometer
mb
20260509161741 16 270 3.2 8.0 0.00 0.00 0.00 46 1013.4
20260509160741 16 263 3.2 4.8 0.00 0.00 0.00 46 1013.5
20260509155741 16 268 3.2 4.8 0.00 0.00 0.00 46 1013.4
20260509154741 16 255 3.2 4.8 0.00 0.00 0.00 47 1013.5
20260509153741 16 268 3.2 4.8 0.00 0.00 0.00 47 1013.6
20260509152743 16 261 3.2 4.8 0.00 0.00 0.00 47 1013.5
20260509151743 16 270 1.6 3.2 0.00 0.00 0.00 47 1013.5
20260509150743 16 14 0.0 0.0 0.00 0.00 0.00 47 1013.5
20260509145742 16 253 1.6 1.6 0.00 0.00 0.00 47 1013.4
20260509144743 17 262 3.2 4.8 0.00 0.00 0.00 46 1013.3
20260509143742 17 253 0.0 3.2 0.00 0.00 0.00 46 1013.3
20260509142742 17 270 3.2 3.2 0.00 0.00 0.00 45 1013.4
20260509141742 17 255 1.6 3.2 0.00 0.00 0.00 45 1013.3
20260509140742 17 264 3.2 3.2 0.00 0.00 0.00 44 1013.1
20260509135742 17 267 1.6 4.8 0.00 0.00 0.00 43 1013.1
20260509134742 17 272 1.6 4.8 0.00 0.00 0.00 43 1013.1
20260509133742 17 262 1.6 3.2 0.00 0.00 0.00 42 1013.0
20260509132742 17 268 0.0 3.2 0.00 0.00 0.00 42 1013.0
20260509124741 18 242 3.2 4.8 0.00 0.00 0.00 40 1012.6
20260509121743 18 265 4.8 9.7 0.00 0.00 0.00 38 1012.5
20260509120742 18 277 3.2 8.0 0.00 0.00 0.00 37 1012.4
20260509113742 19 268 4.8 9.7 0.00 0.00 0.00 35 1012.2
20260509112742 19 262 4.8 8.0 0.00 0.00 0.00 36 1012.2
20260509111742 19 268 8.0 9.7 0.00 0.00 0.00 35 1012.2
20260509110742 19 262 4.8 8.0 0.00 0.00 0.00 35 1012.0
20260509105742 20 263 8.0 8.0 0.00 0.00 0.00 34 1011.9
20260509104742 20 268 4.8 9.7 0.00 0.00 0.00 34 1011.8
20260509103741 20 267 4.8 9.7 0.00 0.00 0.00 33 1011.5
20260509102743 20 268 8.0 12.9 0.00 0.00 0.00 34 1011.2
20260509100741 20 269 8.0 11.3 0.00 0.00 0.00 33 1010.9
20260509095741 20 267 11.3 14.5 0.00 0.00 0.00 33 1010.6
20260509094743 20 265 11.3 12.9 0.00 0.00 0.00 32 1010.3
20260509093743 20 265 11.3 14.5 0.00 0.00 0.00 32 1010.0
20260509092742 21 262 11.3 20.9 0.00 0.00 0.00 31 1009.9
20260509091742 21 264 9.7 16.1 0.00 0.00 0.00 31 1009.6
20260509090742 21 270 11.3 19.3 0.00 0.00 0.00 31 1009.5
20260509085742 21 270 9.7 14.5 0.00 0.00 0.00 30 1009.4
20260509084742 22 263 8.0 12.9 0.00 0.00 0.00 30 1009.5
20260509083742 22 271 9.7 12.9 0.00 0.00 0.00 29 1009.4
20260509082742 22 267 9.7 14.5 0.00 0.00 0.00 30 1009.3
20260509081742 22 263 8.0 9.7 0.00 0.00 0.00 29 1009.2
20260509080741 22 275 11.3 14.5 0.00 0.00 0.00 29 1009.0
20260509075741 22 270 8.0 12.9 0.00 0.00 0.00 29 1008.8
20260509074741 22 277 8.0 9.7 0.00 0.00 0.00 29 1008.6
20260509073741 22 271 9.7 12.9 0.00 0.00 0.00 30 1008.6
20260509072741 23 267 8.0 14.5 0.00 0.00 0.00 29 1008.5
20260509071741 23 265 9.7 12.9 0.00 0.00 0.00 28 1008.5
20260509070743 23 270 9.7 16.1 0.00 0.00 0.00 27 1008.5
20260509065743 23 265 9.7 16.1 0.00 0.00 0.00 25 1008.2
20260509064743 23 270 12.9 19.3 0.00 0.00 0.00 24 1008.1
20260509063742 23 265 11.3 14.5 0.00 0.00 0.00 24 1008.1
20260509062742 23 267 9.7 20.9 0.00 0.00 0.00 25 1007.7
20260509061742 23 272 11.3 16.1 0.00 0.00 0.00 25 1007.8
20260509060742 23 276 8.0 12.9 0.00 0.00 0.00 26 1007.5
20260509055742 23 260 11.3 19.3 0.00 0.00 0.00 24 1007.6
20260509054742 23 265 9.7 14.5 0.00 0.00 0.00 25 1007.8
20260509053742 23 267 9.7 19.3 0.00 0.00 0.00 27 1007.9
20260509052741 23 273 8.0 11.3 0.00 0.00 0.00 26 1007.9
20260509051741 23 271 8.0 12.9 0.00 0.00 0.00 26 1007.8
20260509050742 23 265 9.7 19.3 0.00 0.00 0.00 27 1007.8
20260509045741 23 268 9.7 14.5 0.00 0.00 0.00 26 1007.7
20260509044741 23 273 11.3 12.9 0.00 0.00 0.00 24 1007.8
20260509043743 23 268 12.9 20.9 0.00 0.00 0.00 27 1007.8
20260509042742 23 279 11.3 20.9 0.00 0.00 0.00 26 1007.7
20260509040742 23 265 11.3 19.3 0.00 0.00 0.00 26 1007.7
20260509035742 22 268 11.3 22.5 0.00 0.00 0.00 27 1007.8
20260509034742 22 269 9.7 14.5 0.00 0.00 0.00 27 1007.7
20260509033742 22 267 11.3 19.3 0.00 0.00 0.00 27 1007.8
20260509032742 22 267 11.3 16.1 0.00 0.00 0.00 27 1007.9
20260509031741 22 269 4.8 11.3 0.00 0.00 0.00 27 1008.0
20260509030741 22 259 11.3 14.5 0.00 0.00 0.00 28 1008.2
20260509025741 22 267 9.7 19.3 0.00 0.00 0.00 29 1008.1
20260509024741 22 275 9.7 12.9 0.00 0.00 0.00 29 1008.2
20260509023741 22 267 11.3 14.5 0.00 0.00 0.00 29 1008.1
20260509022743 21 251 9.7 11.3 0.00 0.00 0.00 30 1008.4
20260509021743 21 269 11.3 16.1 0.00 0.00 0.00 32 1008.4
20260509020743 21 269 8.0 11.3 0.00 0.00 0.00 32 1008.6
20260509015742 21 269 11.3 16.1 0.00 0.00 0.00 34 1008.5
20260509014742 20 271 12.9 19.3 0.00 0.00 0.00 34 1008.6
20260509013742 20 261 8.0 12.9 0.00 0.00 0.00 36 1008.8
20260509012742 20 267 11.3 14.5 0.00 0.00 0.00 36 1008.6
20260509011742 20 271 11.3 14.5 0.00 0.00 0.00 37 1008.7
20260509010742 20 265 9.7 16.1 0.00 0.00 0.00 38 1008.7
20260509005741 19 264 11.3 14.5 0.00 0.00 0.00 38 1008.8
20260509004741 19 263 11.3 14.5 0.00 0.00 0.00 39 1008.7
20260509003741 19 274 9.7 14.5 0.00 0.00 0.00 39 1008.7
20260509002744 18 263 9.7 14.5 0.00 0.00 0.00 41 1008.5
20260509001743 18 261 9.7 12.9 0.00 0.00 0.00 42 1008.3
20260509000744 18 262 8.0 14.5 0.00 0.00 0.00 43 1008.2
20260508235742 18 264 11.3 16.1 0.00 0.00 0.00 44 1008.3
20260508234742 17 261 9.7 11.3 0.00 0.00 0.00 45 1008.4
20260508233742 17 272 11.3 14.5 0.00 0.00 0.00 47 1008.2
20260508231742 17 264 9.7 20.9 0.00 0.00 0.00 48 1008.4
20260508230742 17 265 11.3 22.5 0.00 0.00 0.00 48 1008.3
20260508225742 17 268 8.0 16.1 0.00 0.00 0.00 48 1008.2
20260508224742 17 263 9.7 14.5 0.00 0.00 0.00 48 1008.2
20260508223741 17 259 4.8 9.7 0.00 0.00 0.00 48 1008.2
20260508222741 17 269 4.8 8.0 0.00 0.00 0.00 48 1008.2
20260508220741 16 264 8.0 14.5 0.00 0.00 0.00 50 1008.2
20260508215741 16 263 4.8 12.9 0.00 0.00 0.00 50 1008.0
20260508214744 16 266 8.0 11.3 0.00 0.00 0.00 51 1007.9
20260508213743 16 269 8.0 12.9 0.00 0.00 0.00 51 1008.0
20260508211741 15 262 8.0 12.9 0.00 0.00 0.00 51 1007.7
20260508210741 16 274 3.2 8.0 0.00 0.00 0.00 52 1007.6
20260508205742 15 269 8.0 12.9 0.00 0.00 0.00 52 1007.7
20260508204742 15 263 4.8 9.7 0.00 0.00 0.00 53 1007.7
20260508203742 15 261 8.0 11.3 0.00 0.00 0.00 54 1007.4
20260508202742 15 261 9.7 12.9 0.00 0.00 0.00 53 1007.4
20260508201742 15 264 8.0 12.9 0.00 0.00 0.00 55 1007.3
20260508200742 15 263 8.0 14.5 0.00 0.00 0.00 54 1007.0
20260508195742 15 261 4.8 9.7 0.00 0.00 0.00 54 1006.8
20260508194741 15 268 11.3 14.5 0.00 0.00 0.00 52 1006.7
20260508193741 15 264 8.0 12.9 0.00 0.00 0.00 54 1006.6
20260508192742 15 273 8.0 14.5 0.00 0.00 0.00 53 1006.4
20260508191742 15 259 9.7 11.3 0.00 0.00 0.00 52 1006.3
20260508190742 15 275 9.7 12.9 0.00 0.00 0.00 52 1006.1
20260508185743 15 267 8.0 12.9 0.00 0.00 0.00 51 1006.0
20260508184742 15 260 8.0 11.3 0.00 0.00 0.00 51 1005.7
20260508183742 15 264 11.3 16.1 0.00 0.00 0.00 49 1005.6
20260508182742 15 268 9.7 12.9 0.00 0.00 0.00 46 1005.7
20260508181741 16 266 8.0 11.3 0.00 0.00 0.00 46 1005.6
20260508180741 16 265 8.0 12.9 0.00 0.00 0.00 45 1005.6
20260508175741 16 266 8.0 12.9 0.00 0.00 0.00 44 1005.5
20260508174741 16 263 11.3 16.1 0.00 0.00 0.00 44 1005.5
20260508173741 16 265 8.0 11.3 0.00 0.00 0.00 44 1005.5
20260508172743 16 267 9.7 14.5 0.00 0.00 0.00 42 1005.5
20260508171743 16 247 8.0 12.9 0.00 0.00 0.00 41 1005.5
20260508170743 16 270 9.7 16.1 0.00 0.00 0.00 39 1005.4
20260508165743 16 269 11.3 19.3 0.00 0.00 0.00 38 1005.5
20260508164742 16 256 11.3 16.1 0.00 0.00 0.00 37 1005.5
20260508163742 16 265 8.0 14.5 0.00 0.00 0.00 38 1005.4
20260508162742 16 270 9.7 14.5 0.00 0.00 0.00 37 1005.6